Tracking 19832 objects as of 24-Aug-2019
HD Live streaming from Space Station
objects crossing your sky now

BIRD GG


BIRD GG is no longer on orbit
BIRD GG is classified as:


NORAD ID: 42821
Int'l Code: 1998-067MV
Perigee: N/A
Apogee: N/A
Inclination: N/A
Period: N/A
Semi major axis: N/A
RCS: N/A
Launch date: November 20, 1998
Source: (GHA)
Launch site: TYURATAM MISSILE AND SPACE COMPLEX (TTMTR)
Decay date: 2019-05-22

Uplink (MHz):
Downlink (MHz): 437.375
Beacon (MHz): 437.372
Mode: 1k2AFSK 9k6GMSK CW
Call sign: JG6YJP
Status: Inactive

aabbcc
Your satellite tracking list
Your tracking list is empty




NASA's NSSDC Master Catalog

Two Line Element Set (TLE):
1 42821U 98067MV  19141.12262304  .05646920  12275-4  57384-3 0  9996
2 42821  51.6069  51.4641 0009625 251.4299 108.5681 16.36973497107249
Source of the keplerian elements: AMSAT